ФОРУМ Москва и Подмосковье

Информация о пользователе

Привет, Гость! Войдите или зарегистрируйтесь.


Вы здесь » ФОРУМ Москва и Подмосковье » Деловые педложения и сотрудничество


Деловые педложения и сотрудничество

Тем 1 страница 100 из 438

Тема Ответов Просмотров Последнее сообщение
1 Юристы.  Tojazragore
1 8 2022-10-05 13:18:52  Kate Shupanova
0 2 2022-10-02 17:36:33  orlovadaniela3
2 16 2022-09-30 23:36:20  kiki09
1 11 2022-09-30 21:09:34  Jakkamsa
5 82 2022-09-28 18:05:34  татиса
0 6 2022-09-25 16:05:04  Надежда смирнова
1 5 2022-09-23 20:56:01  Snek
0 7 2022-09-21 20:16:20  k S
31 328 2022-09-20 08:47:05  Allo4ka
1 11 2022-09-19 06:13:57  marina80
1 6 2022-09-19 04:44:42  Артур22
5 211 2022-09-15 22:45:36  shelly
4 49 2022-09-13 19:16:44  АндрейНовожилов556
0 8 2022-09-11 14:08:43  orlovadaniela3
15 Займ  vika.potapova
17 138 2022-09-07 22:18:33  Lolly
0 5 2022-08-27 15:04:45  orlovadaniela3
0 4 2022-08-26 11:50:11  orlovadaniela3
0 5 2022-08-25 18:36:53  orlovadaniela3
0 12 2022-08-03 10:20:22  oddway
1 8 2022-08-02 08:27:52  vorontsovanatulya
0 12 2022-07-29 09:49:29  orlovadaniela3
0 8 2022-07-26 09:33:06  orlovadaniela3
1 11 2022-07-26 03:38:52  Артур22
0 7 2022-07-23 18:39:01  Hormone
25 Товарный знак  vorontsovanatulya
5 87 2022-07-21 18:26:59  дилара
3 24 2022-07-14 17:02:15  viOghas
3 15322 2022-07-13 14:14:39  Verona
1 20 2022-07-12 21:22:22  Бережная
0 10 2022-07-08 18:54:44  DINGO
4 46 2022-07-07 15:28:01  BitHowen
0 10 2022-07-04 16:11:26  Nemesis
0 13 2022-06-29 11:36:22  valentina_2266
0 15 2022-06-28 07:44:31  valentina_2266
1 21 2022-06-25 21:53:32  Диниил
0 9 2022-06-22 11:00:00  sudipta.mania.00
0 8 2022-06-22 08:18:58  valentina_2266
2 14 2022-05-29 21:12:30  ArtemParshin
1 19 2022-05-20 00:31:50  Yan Yagoda
39 Крепеж  Ивантай
1 23 2022-05-14 03:42:33  Артур22
2 24 2022-05-10 12:24:30  RitaR
3 46 2022-05-07 22:33:11  Ayna Vlasova
2 24 2022-04-28 18:51:49  RitaR
2 30 2022-04-27 10:11:33  Юлька
44 емкости  crowl
2 58 2022-04-21 20:13:36  Stepanoff
0 26 2022-04-15 00:55:51  s_v_e
3 1120 2022-04-10 11:12:48  Тарас
0 25 2022-04-07 11:52:28  Fausts
3 1057 2022-04-07 09:00:37  Петрович
49 Парковка  Семёныч
3 43 2022-03-30 15:33:45  Mari
1 31 2022-03-21 19:43:21  СтасКосович
1 17 2022-03-13 15:38:32  k S
5 40 2022-03-12 20:51:17  devushkaket
0 26 2022-03-08 20:46:53  s_v_e
2 25 2022-02-23 19:50:44  ArtemParshin
55 Отпариватель  Кувшинова Таня
5 69 2022-02-16 11:44:27  Verona
0 20 2022-02-08 14:01:07  s_v_e
1 22 2022-02-01 10:32:23  Hormone
4 51 2022-01-31 22:46:35  Verona
3 44 2022-01-31 19:56:04  black coffe
60 аккумуляторы  Мурчальник
1 20 2022-01-20 15:29:35  Boykot
1 33 2022-01-19 09:11:45  Семёныч
1 24 2022-01-17 22:52:06  Boykot
0 24 2022-01-17 12:17:50  Fausts
1 34 2022-01-15 12:05:03  Hormone
7 117 2022-01-05 21:11:37  Igor1981
0 24 2022-01-04 10:57:09  Bortnik
0 27 2021-12-30 16:01:48  sudipta.mania.00
0 31 2021-12-29 19:05:51  sudipta.mania.00
0 19 2021-12-28 18:04:05  sudipta.mania.00
0 23 2021-12-28 13:27:37  sudipta.mania.00
0 26 2021-12-26 18:26:18  sudipta.mania.00
0 24 2021-12-24 08:34:55  svetik900
6 252 2021-12-23 00:03:48  listik
3 60 2021-12-22 20:02:54  Kenny
75 Маркировка лекарств.  РусланАрлов
2 27 2021-12-20 18:04:36  Ruslan
2 43 2021-12-17 21:12:52  Дима88
77 логгеры влажности  Мурчальник
1 26 2021-12-07 19:55:39  Boykot
4 73 2021-12-05 16:47:46  rondia
12 193 2021-12-05 12:31:51  AndresS
1 41 2021-12-02 12:07:37  vorontsovanatulya
9 246 2021-11-29 20:53:58  Светлана Савкина
1 28 2021-11-23 14:53:17  Дерненко
0 3763 2021-11-19 11:45:22  Fausts
0 27 2021-11-11 16:19:30  sudipta.mania.00
3 57 2021-11-10 22:32:56  Белозерова
5 94 2021-11-10 21:22:03  Белозерова
0 529 2021-11-04 16:08:28  Fausts
88 Работа  Klemenkoivan
1 26 2021-10-29 15:45:46  Klemenkoivan
1 64 2021-10-26 12:36:58  Николай Пруглов
8 139 2021-10-21 11:38:43  Soloveyko
0 33 2021-10-19 18:35:38  sudipta.mania.00
0 23 2021-10-16 13:02:30  sudipta.mania.00
1 108 2021-10-09 13:56:52  Fod192
0 33 2021-10-02 17:41:14  Fausts
1 170 2021-09-30 13:57:12  Андрей Каспаров
2 25 2021-09-30 13:53:36  Андрей Каспаров
2 25 2021-09-30 13:52:35  Андрей Каспаров
3 30 2021-09-30 13:50:30  Андрей Каспаров
99 Решётки вентиляционные  Валерий Гавришко
2 33 2021-09-30 13:38:18  Андрей Каспаров
0 22 2021-09-29 19:50:56  Туман

Вы здесь » ФОРУМ Москва и Подмосковье » Деловые педложения и сотрудничество